Погода в Ольшане

Украина / Сумская область     50°48′34″N   34°01′48″E
темп.,
°C
ветер,
м/с
пор.,
м/с
влажн.,
%
обл.,
%
осадки,
мм/ч
давл.,
гПа
погр.,
м
20 июня, вс
вс2000:00+19в511885 0.0 1020282
03:00+17в512926 0.1 1020267
06:00+17в5138525 0.0 1019292
09:00+22в6127191 0.0 1019513
12:00+24в7962100 0.0 1019785
15:00+25в6967100 0.0 1018891
18:00+24всв9167392 0.0 1016532
21:00+21в7147695 0.0 1017487
21 июня, пн
пн2100:00+19в5138096 0.0 1016291
03:00+17всв41189100 0.3 1015203
06:00+18всв5128393 0.0 1015281
09:00+22вюв6117348 0.0 1015441
12:00+26вюв7146090 0.0 1014986
15:00+27юв71261100 0.0 10141332
18:00+26юв596713 0.0 1014642
21:00+21в49870 0.0 1015164
22 июня, вт
вт2200:00+19вюв410890 0.0 1016177
03:00+18в410845 0.0 1016161
06:00+17в411811 0.0 1015188
09:00+23вюв5106678 0.0 1016334
12:00+27вюв61155100 0.0 1016839
15:00+28вюв61258100 0.0 10161324
18:00+26в5116734 0.0 1016600
21:00+22в412874 0.0 1016228
23 июня, ср
ср2300:00+21в412905 0.0 1016215
03:00+21всв41184100 0.0 1016219
06:00+21всв51381100 0.0 1016280
09:00+24в6117179 0.0 1016428
12:00+28в576083 0.0 1016552
15:00+30вюв61058100 0.0 10171225
18:00+27в5971100 0.0 1017405
21:00+24в4108489 0.0 1018211
24 июня, чт
чт2400:00+22в498982 0.0 1018139
03:00+20в378585 0.0 101899
06:00+21всв4984100 0.0 1018175
09:00+26в59686 0.0 1018362
12:00+29вюв57555 0.0 1018776
15:00+30вюв565495 0.0 10171039
18:00+27в3571100 0.0 1017205
21:00+24в347920 0.0 101768